Time,TemperatureF,DewpointF,PressureIn,WindDirection,WindDirectionDegrees,WindSpeedMPH,WindSpeedGustMPH,Humidity,HourlyPrecipIn,Conditions,Clouds,dailyrainin,SoftwareType,DateUTC
2013-11-09 00:09:00,-999.0,-99.9,29.97,North,-999,-999.0,-999.0,-999,-99.99,,,0.00,weatherlink.com 1.10,2013-11-09 05:09:00,
2013-11-09 00:24:00,-999.0,-99.9,29.97,North,-999,-999.0,-999.0,-999,-99.99,,,0.00,weatherlink.com 1.10,2013-11-09 05:24:00,
2013-11-09 00:39:00,-999.0,-99.9,29.97,North,-999,-999.0,-999.0,-999,-99.99,,,0.00,weatherlink.com 1.10,2013-11-09 05:39:00,
2013-11-09 00:54:00,-999.0,-99.9,29.97,North,-999,-999.0,-999.0,-999,-99.99,,,0.00,weatherlink.com 1.10,2013-11-09 05:54:00,
2013-11-09 01:09:00,-999.0,-99.9,29.96,North,-999,-999.0,-999.0,-999,-99.99,,,0.00,weatherlink.com 1.10,2013-11-09 06:09:00,
2013-11-09 01:24:00,-999.0,-99.9,29.96,North,-999,-999.0,-999.0,-999,-99.99,,,0.00,weatherlink.com 1.10,2013-11-09 06:24:00,
2013-11-09 01:39:00,-999.0,-99.9,29.96,North,-999,-999.0,-999.0,-999,-99.99,,,0.00,weatherlink.com 1.10,2013-11-09 06:39:00,
2013-11-09 01:54:00,-999.0,-99.9,29.96,North,-999,-999.0,-999.0,-999,-99.99,,,0.00,weatherlink.com 1.10,2013-11-09 06:54:00,
2013-11-09 02:09:00,-999.0,-99.9,29.95,North,-999,-999.0,-999.0,-999,-99.99,,,0.00,weatherlink.com 1.10,2013-11-09 07:09:00,
2013-11-09 02:24:00,-999.0,-99.9,29.95,North,-999,-999.0,-999.0,-999,-99.99,,,0.00,weatherlink.com 1.10,2013-11-09 07:24:00,
2013-11-09 02:39:00,-999.0,-99.9,29.96,North,-999,-999.0,-999.0,-999,-99.99,,,0.00,weatherlink.com 1.10,2013-11-09 07:39:00,
2013-11-09 02:54:00,-999.0,-99.9,29.96,North,-999,-999.0,-999.0,-999,-99.99,,,0.00,weatherlink.com 1.10,2013-11-09 07:54:00,
2013-11-09 03:09:00,-999.0,-99.9,29.96,North,-999,-999.0,-999.0,-999,-99.99,,,0.00,weatherlink.com 1.10,2013-11-09 08:09:00,
2013-11-09 03:24:00,-999.0,-99.9,29.96,North,-999,-999.0,-999.0,-999,-99.99,,,0.00,weatherlink.com 1.10,2013-11-09 08:24:00,
2013-11-09 03:39:00,-999.0,-99.9,29.96,North,-999,-999.0,-999.0,-999,-99.99,,,0.00,weatherlink.com 1.10,2013-11-09 08:39:00,
2013-11-09 03:54:00,-999.0,-99.9,29.96,North,-999,-999.0,-999.0,-999,-99.99,,,0.00,weatherlink.com 1.10,2013-11-09 08:54:00,
2013-11-09 04:09:00,-999.0,-99.9,29.96,North,-999,-999.0,-999.0,-999,-99.99,,,0.00,weatherlink.com 1.10,2013-11-09 09:09:00,
2013-11-09 04:24:00,-999.0,-99.9,29.96,North,-999,-999.0,-999.0,-999,-99.99,,,0.00,weatherlink.com 1.10,2013-11-09 09:24:00,
2013-11-09 04:39:00,-999.0,-99.9,29.96,North,-999,-999.0,-999.0,-999,-99.99,,,0.00,weatherlink.com 1.10,2013-11-09 09:39:00,
2013-11-09 04:54:00,-999.0,-99.9,29.96,North,-999,-999.0,-999.0,-999,-99.99,,,0.00,weatherlink.com 1.10,2013-11-09 09:54:00,
2013-11-09 05:09:00,-999.0,-99.9,29.97,North,-999,-999.0,-999.0,-999,-99.99,,,0.00,weatherlink.com 1.10,2013-11-09 10:09:00,
2013-11-09 05:24:00,-999.0,-99.9,29.98,North,-999,-999.0,-999.0,-999,-99.99,,,0.00,weatherlink.com 1.10,2013-11-09 10:24:00,
2013-11-09 05:39:00,-999.0,-99.9,29.98,North,-999,-999.0,-999.0,-999,-99.99,,,0.00,weatherlink.com 1.10,2013-11-09 10:39:00,
2013-11-09 05:54:00,-999.0,-99.9,29.99,North,-999,-999.0,-999.0,-999,-99.99,,,0.00,weatherlink.com 1.10,2013-11-09 10:54:00,
2013-11-09 06:09:00,-999.0,-99.9,29.99,North,-999,-999.0,-999.0,-999,-99.99,,,0.00,weatherlink.com 1.10,2013-11-09 11:09:00,
2013-11-09 06:24:00,-999.0,-99.9,29.99,North,-999,-999.0,-999.0,-999,-99.99,,,0.00,weatherlink.com 1.10,2013-11-09 11:24:00,
2013-11-09 06:39:00,-999.0,-99.9,29.99,North,-999,-999.0,-999.0,-999,-99.99,,,0.00,weatherlink.com 1.10,2013-11-09 11:39:00,
2013-11-09 06:54:00,-999.0,-99.9,30.00,North,-999,-999.0,-999.0,-999,-99.99,,,0.00,weatherlink.com 1.10,2013-11-09 11:54:00,
2013-11-09 07:09:00,-999.0,-99.9,30.01,North,-999,-999.0,-999.0,-999,-99.99,,,0.00,weatherlink.com 1.10,2013-11-09 12:09:00,
2013-11-09 07:24:00,-999.0,-99.9,30.02,North,-999,-999.0,-999.0,-999,-99.99,,,0.00,weatherlink.com 1.10,2013-11-09 12:24:00,
2013-11-09 07:39:00,-999.0,-99.9,30.02,North,-999,-999.0,-999.0,-999,-99.99,,,0.00,weatherlink.com 1.10,2013-11-09 12:39:00,
2013-11-09 07:54:00,-999.0,-99.9,30.02,North,-999,-999.0,-999.0,-999,-99.99,,,0.00,weatherlink.com 1.10,2013-11-09 12:54:00,
2013-11-09 08:09:00,-999.0,-99.9,30.03,North,-999,-999.0,-999.0,-999,-99.99,,,0.00,weatherlink.com 1.10,2013-11-09 13:09:00,
2013-11-09 08:24:00,77.7,73.0,30.03,East,80,12.0,-999.0,84,-99.99,,,0.00,weatherlink.com 1.10,2013-11-09 13:24:00,
2013-11-09 08:39:00,78.5,73.0,30.04,ENE,68,4.0,-999.0,84,-99.99,,,0.00,weatherlink.com 1.10,2013-11-09 13:39:00,
2013-11-09 08:54:00,78.3,73.0,30.04,NE,42,11.0,-999.0,84,-99.99,,,0.00,weatherlink.com 1.10,2013-11-09 13:54:00,
2013-11-09 09:09:00,77.9,73.0,30.04,East,90,6.0,-999.0,84,-99.99,,,0.00,weatherlink.com 1.10,2013-11-09 14:09:00,
2013-11-09 09:24:00,79.2,73.0,30.05,NE,38,10.0,-999.0,82,-99.99,,,0.00,weatherlink.com 1.10,2013-11-09 14:24:00,
2013-11-09 09:39:00,79.8,74.0,30.05,NE,47,11.0,-999.0,82,-99.99,,,0.00,weatherlink.com 1.10,2013-11-09 14:39:00,
2013-11-09 09:54:00,78.6,73.0,30.05,NE,44,6.0,-999.0,82,-99.99,,,0.00,weatherlink.com 1.10,2013-11-09 14:54:00,
2013-11-09 10:09:00,78.6,73.0,30.05,ENE,65,6.0,-999.0,83,-99.99,,,0.00,weatherlink.com 1.10,2013-11-09 15:09:00,
2013-11-09 10:24:00,78.8,73.0,30.05,NE,55,10.0,-999.0,82,-99.99,,,0.00,weatherlink.com 1.10,2013-11-09 15:24:00,
2013-11-09 10:39:00,79.4,73.0,30.05,NE,55,10.0,-999.0,81,-99.99,,,0.00,weatherlink.com 1.10,2013-11-09 15:39:00,
2013-11-09 10:54:00,79.4,73.0,30.05,East,97,6.0,-999.0,81,-99.99,,,0.00,weatherlink.com 1.10,2013-11-09 15:54:00,
2013-11-09 11:09:00,79.4,74.0,30.04,NE,41,5.0,-999.0,82,-99.99,,,0.00,weatherlink.com 1.10,2013-11-09 16:09:00,
2013-11-09 11:24:00,80.3,74.0,30.04,NE,41,12.0,-999.0,80,-99.99,,,0.00,weatherlink.com 1.10,2013-11-09 16:24:00,
2013-11-09 11:39:00,80.1,73.0,30.04,ENE,63,7.0,-999.0,80,-99.99,,,0.00,weatherlink.com 1.10,2013-11-09 16:39:00,
2013-11-09 11:54:00,80.3,73.0,30.04,NE,38,13.0,-999.0,79,-99.99,,,0.00,weatherlink.com 1.10,2013-11-09 16:54:00,
2013-11-09 12:09:00,80.9,73.0,30.03,NE,43,10.0,-999.0,78,-99.99,,,0.00,weatherlink.com 1.10,2013-11-09 17:09:00,
2013-11-09 12:24:00,79.9,73.0,30.02,NE,35,14.0,-999.0,79,-99.99,,,0.00,weatherlink.com 1.10,2013-11-09 17:24:00,
2013-11-09 12:39:00,79.6,73.0,30.02,East,79,7.0,-999.0,80,-99.99,,,0.00,weatherlink.com 1.10,2013-11-09 17:39:00,
2013-11-09 12:54:00,80.3,73.0,30.01,ESE,110,9.0,-999.0,79,-99.99,,,0.00,weatherlink.com 1.10,2013-11-09 17:54:00,
2013-11-09 13:09:00,79.9,73.0,30.00,ENE,76,10.0,-999.0,78,-99.99,,,0.00,weatherlink.com 1.10,2013-11-09 18:09:00,
2013-11-09 13:24:00,79.8,73.0,30.00,East,93,6.0,-999.0,80,-99.99,,,0.00,weatherlink.com 1.10,2013-11-09 18:24:00,
2013-11-09 13:39:00,80.9,73.0,30.00,NNE,30,11.0,-999.0,78,-99.99,,,0.00,weatherlink.com 1.10,2013-11-09 18:39:00,
2013-11-09 13:54:00,80.1,73.0,30.00,NE,50,5.0,-999.0,79,-99.99,,,0.00,weatherlink.com 1.10,2013-11-09 18:54:00,
2013-11-09 14:09:00,79.4,73.0,30.00,NE,51,7.0,-999.0,81,-99.99,,,0.00,weatherlink.com 1.10,2013-11-09 19:09:00,
2013-11-09 14:24:00,79.0,72.0,30.00,ENE,61,15.0,-999.0,80,-99.99,,,0.00,weatherlink.com 1.10,2013-11-09 19:24:00,
2013-11-09 14:39:00,78.8,73.0,30.00,NE,55,11.0,-999.0,81,-99.99,,,0.00,weatherlink.com 1.10,2013-11-09 19:39:00,
2013-11-09 14:54:00,79.0,73.0,30.00,ENE,59,8.0,-999.0,82,-99.99,,,0.00,weatherlink.com 1.10,2013-11-09 19:54:00,
2013-11-09 15:09:00,79.6,73.0,30.00,East,99,5.0,-999.0,80,-99.99,,,0.00,weatherlink.com 1.10,2013-11-09 20:09:00,
2013-11-09 15:24:00,78.6,73.0,30.00,NE,46,10.0,-999.0,82,-99.99,,,0.00,weatherlink.com 1.10,2013-11-09 20:24:00,
2013-11-09 15:39:00,78.3,72.0,30.00,NE,45,9.0,-999.0,82,-99.99,,,0.00,weatherlink.com 1.10,2013-11-09 20:39:00,
2013-11-09 15:54:00,78.6,72.0,30.00,ENE,57,10.0,-999.0,81,-99.99,,,0.00,weatherlink.com 1.10,2013-11-09 20:54:00,
2013-11-09 16:09:00,77.9,72.0,30.00,ENE,73,7.0,-999.0,82,-99.99,,,0.00,weatherlink.com 1.10,2013-11-09 21:09:00,
2013-11-09 16:24:00,-999.0,-99.9,30.00,North,-999,-999.0,-999.0,-999,-99.99,,,0.00,weatherlink.com 1.10,2013-11-09 21:24:00,
2013-11-09 16:39:00,-999.0,-99.9,30.01,North,-999,-999.0,-999.0,-999,-99.99,,,0.00,weatherlink.com 1.10,2013-11-09 21:39:00,
2013-11-09 16:54:00,-999.0,-99.9,30.01,North,-999,-999.0,-999.0,-999,-99.99,,,0.00,weatherlink.com 1.10,2013-11-09 21:54:00,
2013-11-09 17:09:00,-999.0,-99.9,30.01,North,-999,-999.0,-999.0,-999,-99.99,,,0.00,weatherlink.com 1.10,2013-11-09 22:09:00,
2013-11-09 17:24:00,-999.0,-99.9,30.01,North,-999,-999.0,-999.0,-999,-99.99,,,0.00,weatherlink.com 1.10,2013-11-09 22:24:00,
2013-11-09 17:39:00,-999.0,-99.9,30.01,North,-999,-999.0,-999.0,-999,-99.99,,,0.00,weatherlink.com 1.10,2013-11-09 22:39:00,
2013-11-09 17:54:00,-999.0,-99.9,30.02,North,-999,-999.0,-999.0,-999,-99.99,,,0.00,weatherlink.com 1.10,2013-11-09 22:54:00,
2013-11-09 18:09:00,-999.0,-99.9,30.02,North,-999,-999.0,-999.0,-999,-99.99,,,0.00,weatherlink.com 1.10,2013-11-09 23:09:00,
2013-11-09 18:24:00,-999.0,-99.9,30.02,North,-999,-999.0,-999.0,-999,-99.99,,,0.00,weatherlink.com 1.10,2013-11-09 23:24:00,
2013-11-09 18:39:00,-999.0,-99.9,30.02,North,-999,-999.0,-999.0,-999,-99.99,,,0.00,weatherlink.com 1.10,2013-11-09 23:39:00,
2013-11-09 18:54:00,-999.0,-99.9,30.03,North,-999,-999.0,-999.0,-999,-99.99,,,0.00,weatherlink.com 1.10,2013-11-09 23:54:00,
2013-11-09 19:09:00,-999.0,-99.9,30.04,North,-999,-999.0,-999.0,-999,-99.99,,,0.00,weatherlink.com 1.10,2013-11-10 00:09:00,
2013-11-09 19:24:00,-999.0,-99.9,30.04,North,-999,-999.0,-999.0,-999,-99.99,,,0.00,weatherlink.com 1.10,2013-11-10 00:24:00,
2013-11-09 19:39:00,-999.0,-99.9,30.04,North,-999,-999.0,-999.0,-999,-99.99,,,0.00,weatherlink.com 1.10,2013-11-10 00:39:00,
2013-11-09 19:54:00,-999.0,-99.9,30.04,North,-999,-999.0,-999.0,-999,-99.99,,,0.00,weatherlink.com 1.10,2013-11-10 00:54:00,
2013-11-09 20:09:00,-999.0,-99.9,30.04,North,-999,-999.0,-999.0,-999,-99.99,,,0.00,weatherlink.com 1.10,2013-11-10 01:09:00,
2013-11-09 20:24:00,-999.0,-99.9,30.04,North,-999,-999.0,-999.0,-999,-99.99,,,0.00,weatherlink.com 1.10,2013-11-10 01:24:00,
2013-11-09 20:39:00,-999.0,-99.9,30.04,North,-999,-999.0,-999.0,-999,-99.99,,,0.00,weatherlink.com 1.10,2013-11-10 01:39:00,
2013-11-09 20:54:00,-999.0,-99.9,30.04,North,-999,-999.0,-999.0,-999,-99.99,,,0.00,weatherlink.com 1.10,2013-11-10 01:54:00,
2013-11-09 21:09:00,-999.0,-99.9,30.04,North,-999,-999.0,-999.0,-999,-99.99,,,0.00,weatherlink.com 1.10,2013-11-10 02:09:00,
2013-11-09 21:24:00,-999.0,-99.9,30.04,North,-999,-999.0,-999.0,-999,-99.99,,,0.00,weatherlink.com 1.10,2013-11-10 02:24:00,
2013-11-09 21:39:00,-999.0,-99.9,30.04,North,-999,-999.0,-999.0,-999,-99.99,,,0.00,weatherlink.com 1.10,2013-11-10 02:39:00,
2013-11-09 21:54:00,-999.0,-99.9,30.05,North,-999,-999.0,-999.0,-999,-99.99,,,0.00,weatherlink.com 1.10,2013-11-10 02:54:00,
2013-11-09 22:09:00,-999.0,-99.9,30.05,North,-999,-999.0,-999.0,-999,-99.99,,,0.00,weatherlink.com 1.10,2013-11-10 03:09:00,
2013-11-09 22:24:00,-999.0,-99.9,30.04,North,-999,-999.0,-999.0,-999,-99.99,,,0.00,weatherlink.com 1.10,2013-11-10 03:24:00,
2013-11-09 22:39:00,-999.0,-99.9,30.04,North,-999,-999.0,-999.0,-999,-99.99,,,0.00,weatherlink.com 1.10,2013-11-10 03:39:00,
2013-11-09 22:54:00,-999.0,-99.9,30.04,North,-999,-999.0,-999.0,-999,-99.99,,,0.00,weatherlink.com 1.10,2013-11-10 03:54:00,
2013-11-09 23:09:00,-999.0,-99.9,30.03,North,-999,-999.0,-999.0,-999,-99.99,,,0.00,weatherlink.com 1.10,2013-11-10 04:09:00,
2013-11-09 23:24:00,-999.0,-99.9,30.03,North,-999,-999.0,-999.0,-999,-99.99,,,0.00,weatherlink.com 1.10,2013-11-10 04:24:00,
2013-11-09 23:39:00,-999.0,-99.9,30.03,North,-999,-999.0,-999.0,-999,-99.99,,,0.00,weatherlink.com 1.10,2013-11-10 04:39:00,
2013-11-09 23:54:00,-999.0,-99.9,30.02,North,-999,-999.0,-999.0,-999,-99.99,,,0.00,weatherlink.com 1.10,2013-11-10 04:54:00,